Flag for Norway Weather past 2 weeks in Gjøvik, Norway

Now
44 °F

Quite cool.


Feels Like: 44 °F
Forecast: 37 / 61 °F
Wind: 1 mph from Northeast

Location: Lillehammer-Saetherengen

Current Time: Sep 18, 2014 at 4:21:30 AM

Latest Report: Sep 18, 2014 at 3:00 AM


Visibility: N/A

Pressure: 30.25 "Hg

Humidity: 93%

Dew point: 42 °F

Location of GjøvikLocation

Historic Weather in Gjøvik — Graph

°F

Gjøvik temperature yesterday

Maximum temperature yesterday: 65 °F (at 4:00 PM)
Minimum temperature yesterday: 44 °F (at 4:00 AM)
Average temperature yesterday: 51 °F

Past Weeks' High & Low Weather Summary

 TemperatureHumidityPressure
High71 °F (Sep 4, 4:00 PM)96% (Sep 8, 2:00 PM)30.50 "Hg (Sep 8, 2:00 PM)
Low41 °F (Sep 13, 8:00 AM)44% (Sep 4, 4:00 PM)29.76 "Hg (Sep 9, 6:00 AM)
Average54 °F82%30.19 "Hg
* Reported Sep 3 3:00 AM — Sep 18 3:00 AM, Gjøvik, Weather by CustomWeather, © 2014

Note: Actual official high and low records may vary slightly from our data, if they occured in-between our weather recording intervals... More about our weather records

Advertising

Gjøvik weather history for previous 24 hours

 ConditionsComfort  
Time TempWeatherWind HumidityBarometerVisibility
3:00 AM
Sep 18
44 °FQuite cool.1 mph93%30.25 "HgN/A
2:00 AM43 °FQuite cool.No wind93%30.25 "HgN/A
1:00 AM45 °FCool.No wind92%30.25 "HgN/A
12:00 AM46 °FCool.No wind91%30.25 "HgN/A
11:00 PM
Sep 17
47 °FCool.No wind88%30.24 "HgN/A
10:00 PM48 °FCool.1 mph86%30.24 "HgN/A
9:00 PM52 °FCool.1 mph79%30.23 "HgN/A
8:00 PM53 °FCool.No wind76%30.22 "HgN/A
7:00 PM58 °FCool.2 mph67%30.20 "HgN/A
6:00 PM62 °FRefreshingly cool.1 mph57%30.20 "HgN/A
5:00 PM65 °FMild.1 mph54%30.20 "HgN/A
4:00 PM65 °FMild.2 mph49%30.21 "HgN/A
3:00 PM62 °FCool.2 mph64%30.23 "HgN/A
2:00 PM60 °FCool.2 mph64%30.24 "HgN/A
1:00 PM59 °FCool.No wind76%30.27 "HgN/A
12:00 PM51 °FCool.1 mph83%30.29 "HgN/A
11:00 AM49 °FCool.1 mph91%30.31 "HgN/A
10:00 AM45 °FCool.1 mph94%30.33 "HgN/A
9:00 AM44 °FQuite cool.1 mph94%30.33 "HgN/A
8:00 AM45 °FQuite cool.2 mph94%30.33 "HgN/A
7:00 AM44 °FQuite cool.1 mph96%30.33 "HgN/A
6:00 AM44 °FQuite cool.1 mph94%30.33 "HgN/A
5:00 AM44 °FQuite cool.1 mph94%30.34 "HgN/A
4:00 AM44 °FQuite cool.1 mph94%30.34 "HgN/A
Weather by CustomWeather, © 2014

See weather overviewHow to use our weather pages